DECAYED

STARLINK-2323, 47868 (Decayed)

Orbit data source: Space-Track

STARLINK-2323, 47868 was a payload satellite owned by SpaceX/Seattle (US) in LEO that was launched on Sun, 14 Mar 2021 UTC via an FALCON 9 launch vehicle from the Air Force Eastern Test Range (AFETR). Payload-class satellites include a variety of spacecraft equipped with specific instruments for various scientific and technological missions. These include communications satellites like Starlink; space stations such as the ISS; scientific satellites like the Hubble; Earth observation satellites from companies like Planet Labs, Umbra, and HawkEye 360; GPS; miniature CubeSats for education and research; and military/defense satellites.

Not visible in the next 10 days
Identifier
47868, 2021-021J
Orbit
Decayed
Country
Flag of USUS
Related business
Manufacturer
SpaceX/Seattle
Mission
Decayed Commercial Communications
Bus & Motor
STARLINK, Unknown motor
Mass
260 kg wet, ~248 kg dry
Launch date (UTC)
2021-03-14 (5 years ago)
Launch vehicle
FALCON 9
Launch site
Air Force Eastern Test Range (AFETR)
Object type
Payload
Rocket body
Debris
Shape & HBR
Box + 1 Pan, 10.1 m
Radar Cross Section
13.562 m², Large (>1 m²)

Expand to show TLE details & history
Last TLE update: 1 year ago

TLE from 1 year ago
0 STARLINK-2323
1 47868U 21021J   25130.06496300  .22451325  12525-4  46857-3 0  9994
2 47868  53.0183 106.1054 0004925 253.4869 183.5919 16.46662574231198
Epoch: 2025-05-10T01:33Z
TLE epoch observation values (Epoch: 2025-05-10T01:33:32.803Z)
Latitude
51.28894°
Longitude
-76.29768°
Altitude
157.393 km
Speed
7.816 km/s
True Right ascension
11h 40m 48s
True Declination
51° 06' 20"
Sunlit
Object was in daylight at epoch
Visualization orbit readout
Latitude
Unknown
Longitude
Unknown
Altitude
Unknown
Speed
Unknown
Apparent Right ascension
Unknown
Apparent Declination
Unknown
Sunlit
N/A
Visualization observer readout
Local Sidereal Time
21:29:23
Azimuth
Unknown
Elevation
Unknown
Doppler factor
Unknown
Orbital elements
Apogee altitude
151.646 km
Perigee altitude
145.218 km
Semi-major axis
6,526.569 km
Eccentricity
0.00049
Inclination
53.0183°
RAAN
106.1054°
Arg. of periapsis
253.4869°
True anomaly
183.58837°
Mean anomaly
183.5919°
Eccentric anomaly
183.59013°
Mean motion
4.11638 °/min
Orbital period
87.46 mins
BSTAR
0.00046857
Loading maneuver chart data...
Computing Atmospheric mass density...

Documentation

Showing up to 5 results
|